• în Republica Moldova
  • Lista ţărilor
  • Pe 7 zile
  • Temperatura apei
  • Hartă satelitară
  • Meteo pe hartă
  • Widget-uri
  • user-avatar
    Intrare

    Meteo pe oră la Sidi Bu-l-Abbas

    Astăzi, 16 August, Miercuri

    Timp Temperatura Precipitaţii Vânt Presiune Umiditate
    00:00 +28°C° 0 mm 2 m/s 722 mmHg 72%
    01:00 +27°C° 0 mm 2 m/s 722 mmHg 74%
    02:00 +27°C° 0 mm 2 m/s 722 mmHg 75%
    03:00 +27°C° 0 mm 1 m/s 722 mmHg 77%
    04:00 +26°C° 0 mm 1 m/s 722 mmHg 78%
    05:00 +26°C° 0 mm 1 m/s 722 mmHg 78%
    06:00 +26°C° 0 mm 1 m/s 723 mmHg 79%
    07:00 +27°C° 0 mm 1 m/s 723 mmHg 72%
    08:00 +28°C° 0 mm 1 m/s 723 mmHg 64%
    09:00 +30°C° 0 mm 1 m/s 723 mmHg 56%
    10:00 +31°C° 0 mm 2 m/s 723 mmHg 51%
    11:00 +32°C° 0 mm 2 m/s 723 mmHg 45%
    12:00 +35°C° 0 mm 3 m/s 724 mmHg 40%
    13:00 +35°C° 0 mm 3 m/s 723 mmHg 39%
    14:00 +36°C° 0 mm 4 m/s 723 mmHg 38%
    15:00 +36°C° 0 mm 4 m/s 722 mmHg 37%
    16:00 +35°C° 0 mm 4 m/s 722 mmHg 40%
    17:00 +35°C° 0 mm 4 m/s 722 mmHg 43%
    18:00 +34°C° 0 mm 4 m/s 722 mmHg 46%
    19:00 +33°C° 0 mm 3 m/s 722 mmHg 50%
    20:00 +31°C° 0 mm 3 m/s 723 mmHg 53%
    21:00 +30°C° 0 mm 2 m/s 723 mmHg 57%
    22:00 +30°C° 0 mm 2 m/s 723 mmHg 58%
    23:00 +29°C° 0 mm 1 m/s 723 mmHg 60%

    Mâine, 17 August, Joi

    Timp Temperatura Precipitaţii Vânt Presiune Umiditate
    00:00 +29°C° 0 mm 1 m/s 723 mmHg 61%
    01:00 +28°C° 0 mm 1 m/s 722 mmHg 63%
    02:00 +28°C° 0 mm 1 m/s 722 mmHg 66%
    03:00 +27°C° 0 mm 1 m/s 722 mmHg 68%
    04:00 +27°C° 0 mm 1 m/s 722 mmHg 68%
    05:00 +27°C° 0 mm 1 m/s 722 mmHg 69%
    06:00 +27°C° 0 mm 1 m/s 722 mmHg 70%
    07:00 +28°C° 0 mm 1 m/s 723 mmHg 62%
    08:00 +30°C° 0 mm 1 m/s 723 mmHg 54%
    09:00 +31°C° 0 mm 2 m/s 723 mmHg 46%
    10:00 +32°C° 0 mm 2 m/s 723 mmHg 42%
    11:00 +35°C° 0 mm 3 m/s 723 mmHg 37%
    12:00 +36°C° 0 mm 3 m/s 723 mmHg 32%
    13:00 +36°C° 0 mm 4 m/s 723 mmHg 32%
    14:00 +37°C° 0 mm 4 m/s 722 mmHg 31%
    15:00 +37°C° 0 mm 4 m/s 722 mmHg 31%
    16:00 +36°C° 0 mm 4 m/s 722 mmHg 34%
    17:00 +35°C° 0 mm 4 m/s 722 mmHg 36%
    18:00 +35°C° 0 mm 4 m/s 721 mmHg 39%
    19:00 +34°C° 0 mm 3 m/s 722 mmHg 43%
    20:00 +33°C° 0 mm 3 m/s 722 mmHg 47%
    21:00 +31°C° 0 mm 2 m/s 722 mmHg 50%
    22:00 +30°C° 0 mm 2 m/s 722 mmHg 52%
    23:00 +30°C° 0 mm 1 m/s 722 mmHg 54%

    Poimâine, 18 August, Vineri

    Timp Temperatura Precipitaţii Vânt Presiune Umiditate
    00:00 +29°C° 0 mm 1 m/s 722 mmHg 56%
    01:00 +28°C° 0 mm 1 m/s 721 mmHg 59%
    02:00 +28°C° 0 mm 1 m/s 721 mmHg 61%
    03:00 +27°C° 0 mm 1 m/s 721 mmHg 64%
    04:00 +27°C° 0 mm 1 m/s 721 mmHg 65%
    05:00 +27°C° 0 mm 1 m/s 721 mmHg 66%
    06:00 +26°C° 0 mm 1 m/s 721 mmHg 66%
    07:00 +28°C° 0 mm 1 m/s 721 mmHg 58%
    08:00 +30°C° 0 mm 1 m/s 721 mmHg 50%
    09:00 +31°C° 0 mm 1 m/s 722 mmHg 41%
    10:00 +33°C° 0 mm 1 m/s 722 mmHg 37%
    11:00 +35°C° 0 mm 2 m/s 722 mmHg 32%
    12:00 +37°C° 0 mm 2 m/s 722 mmHg 27%
    13:00 +37°C° 0 mm 3 m/s 721 mmHg 27%
    14:00 +37°C° 0 mm 4 m/s 721 mmHg 28%
    15:00 +38°C° 0 mm 4 m/s 721 mmHg 28%
    16:00 +37°C° 0 mm 4 m/s 720 mmHg 31%
    17:00 +36°C° 0 mm 4 m/s 720 mmHg 34%
    18:00 +35°C° 0 mm 3 m/s 720 mmHg 36%
    19:00 +34°C° 0 mm 3 m/s 720 mmHg 39%
    20:00 +32°C° 0 mm 2 m/s 721 mmHg 42%
    21:00 +31°C° 0 mm 2 m/s 721 mmHg 44%
    22:00 +31°C° 0 mm 1 m/s 721 mmHg 47%
    23:00 +30°C° 0 mm 1 m/s 721 mmHg 49%

    19 August, Sâmbătă

    Timp Temperatura Precipitaţii Vânt Presiune Umiditate
    00:00 +27°C° 0 mm 0 m/s 721 mmHg 52%
    01:00 +27°C° 0 mm 0 m/s 720 mmHg 53%
    02:00 +28°C° 0 mm 1 m/s 720 mmHg 55%
    03:00 +27°C° 0 mm 1 m/s 720 mmHg 56%
    04:00 +27°C° 0 mm 1 m/s 720 mmHg 58%
    05:00 +27°C° 0 mm 1 m/s 720 mmHg 59%
    06:00 +27°C° 0 mm 1 m/s 721 mmHg 60%
    07:00 +29°C° 0 mm 1 m/s 721 mmHg 52%
    08:00 +30°C° 0 mm 2 m/s 721 mmHg 43%
    09:00 +32°C° 0 mm 2 m/s 722 mmHg 35%
    10:00 +35°C° 0 mm 2 m/s 722 mmHg 30%
    11:00 +36°C° 0 mm 2 m/s 722 mmHg 26%
    12:00 +38°C° 0 mm 2 m/s 722 mmHg 22%
    13:00 +38°C° 0 mm 3 m/s 721 mmHg 23%
    14:00 +38°C° 0 mm 4 m/s 721 mmHg 25%
    15:00 +39°C° 0 mm 5 m/s 721 mmHg 27%
    16:00 +37°C° 0 mm 5 m/s 721 mmHg 30%
    17:00 +36°C° 0 mm 5 m/s 721 mmHg 33%
    18:00 +35°C° 0 mm 5 m/s 721 mmHg 37%
    19:00 +34°C° 0 mm 4 m/s 721 mmHg 40%
    20:00 +33°C° 0 mm 4 m/s 721 mmHg 43%
    21:00 +31°C° 0 mm 3 m/s 722 mmHg 46%
    22:00 +31°C° 0 mm 3 m/s 722 mmHg 49%
    23:00 +30°C° 0 mm 2 m/s 722 mmHg 51%

    20 August, Duminică

    Timp Temperatura Precipitaţii Vânt Presiune Umiditate
    00:00 +29°C° 0 mm 2 m/s 722 mmHg 54%
    01:00 +29°C° 0 mm 2 m/s 721 mmHg 57%
    02:00 +28°C° 0 mm 2 m/s 721 mmHg 60%
    03:00 +28°C° 0 mm 2 m/s 721 mmHg 63%
    04:00 +27°C° 0 mm 2 m/s 721 mmHg 65%
    05:00 +27°C° 0 mm 2 m/s 722 mmHg 67%
    06:00 +27°C° 0 mm 2 m/s 722 mmHg 69%
    07:00 +28°C° 0 mm 2 m/s 722 mmHg 63%
    08:00 +29°C° 0 mm 2 m/s 722 mmHg 57%
    09:00 +30°C° 0 mm 2 m/s 723 mmHg 51%
    10:00 +33°C° 0 mm 3 m/s 723 mmHg 46%
    11:00 +35°C° 0 mm 3 m/s 723 mmHg 41%
    12:00 +36°C° 0 mm 3 m/s 723 mmHg 36%
    13:00 +36°C° 0 mm 4 m/s 722 mmHg 35%
    14:00 +37°C° 0 mm 4 m/s 722 mmHg 35%
    15:00 +37°C° 0 mm 5 m/s 722 mmHg 34%
    16:00 +36°C° 0 mm 5 m/s 722 mmHg 37%
    17:00 +35°C° 0 mm 5 m/s 721 mmHg 40%
    18:00 +35°C° 0 mm 5 m/s 721 mmHg 42%
    19:00 +34°C° 0 mm 4 m/s 722 mmHg 46%
    20:00 +31°C° 0 mm 3 m/s 722 mmHg 50%
    21:00 +30°C° 0 mm 3 m/s 722 mmHg 53%
    22:00 +30°C° 0 mm 2 m/s 722 mmHg 56%
    23:00 +29°C° 0 mm 2 m/s 722 mmHg 59%

    21 August, Luni

    Timp Temperatura Precipitaţii Vânt Presiune Umiditate
    00:00 +29°C° 0 mm 2 m/s 722 mmHg 61%
    01:00 +28°C° 0 mm 2 m/s 722 mmHg 64%
    02:00 +27°C° 0 mm 2 m/s 722 mmHg 66%
    03:00 +27°C° 0 mm 2 m/s 721 mmHg 69%
    04:00 +27°C° 0 mm 1 m/s 721 mmHg 70%
    05:00 +26°C° 0 mm 1 m/s 722 mmHg 71%
    06:00 +26°C° 0 mm 1 m/s 722 mmHg 72%
    07:00 +27°C° 0 mm 2 m/s 722 mmHg 66%
    08:00 +28°C° 0 mm 2 m/s 722 mmHg 60%
    09:00 +30°C° 0 mm 2 m/s 723 mmHg 53%
    10:00 +31°C° 0 mm 2 m/s 722 mmHg 48%
    11:00 +34°C° 0 mm 3 m/s 722 mmHg 43%
    12:00 +35°C° 0 mm 4 m/s 722 mmHg 37%
    13:00 +35°C° 0 mm 4 m/s 722 mmHg 36%
    14:00 +36°C° 0 mm 4 m/s 722 mmHg 35%
    15:00 +36°C° 0 mm 5 m/s 721 mmHg 34%
    16:00 +35°C° 0 mm 5 m/s 721 mmHg 35%
    17:00 +34°C° 0 mm 4 m/s 721 mmHg 37%
    18:00 +34°C° 0 mm 4 m/s 721 mmHg 39%
    19:00 +33°C° 0 mm 4 m/s 722 mmHg 41%
    20:00 +31°C° 0 mm 3 m/s 722 mmHg 44%
    21:00 +30°C° 0 mm 2 m/s 722 mmHg 47%
    22:00 +29°C° 0 mm 2 m/s 722 mmHg 49%
    23:00 +28°C° 0 mm 2 m/s 722 mmHg 52%
    Arată mai mult